BCS2882 EGNX-EIDW

Flight info

Callsign BCS2882
Flight time N/A
Altitude 24000
Route TNT Q4 WAL L10 PENIL L28 LELDO M145 BAGSO BAGSO4L
Aircraft B77L/H-SDE1E2E3FGHIJ2J3J4J5M1RWXYZ/LB1D1

Departure

Time N/A
Airport East Midlands Airport (EGNX)

Arrival

Time 2026-05-07 19:49
Airport Dublin Airport (EIDW)
Time Latitude Longitude Altitude Speed Heading
2026-05-07 19:34 53.73959 -4.72643 17998 ft 361 kts 271°
2026-05-07 19:34 53.74098 -4.76928 17994 ft 368 kts 271°
2026-05-07 19:34 53.74237 -4.81257 17984 ft 370 kts 271°
2026-05-07 19:34 53.74377 -4.85574 17975 ft 368 kts 271°
2026-05-07 19:35 53.74521 -4.89886 17969 ft 367 kts 271°
2026-05-07 19:35 53.74664 -4.94191 17967 ft 366 kts 271°
2026-05-07 19:35 53.74806 -4.98476 17942 ft 364 kts 271°
2026-05-07 19:35 53.74924 -5.02642 17510 ft 358 kts 267°
2026-05-07 19:36 53.74555 -5.06771 16943 ft 355 kts 252°
2026-05-07 19:36 53.73646 -5.10629 16353 ft 352 kts 243°
2026-05-07 19:36 53.72404 -5.14175 15753 ft 351 kts 236°
2026-05-07 19:36 53.71055 -5.17607 15195 ft 349 kts 236°
2026-05-07 19:37 53.69723 -5.20939 14694 ft 333 kts 236°
2026-05-07 19:37 53.68487 -5.24024 14468 ft 302 kts 236°
2026-05-07 19:37 53.67365 -5.26835 14193 ft 285 kts 236°
2026-05-07 19:37 53.66279 -5.29563 13827 ft 275 kts 236°
2026-05-07 19:38 53.65229 -5.32205 13295 ft 269 kts 236°
2026-05-07 19:38 53.64193 -5.34817 12638 ft 267 kts 236°
2026-05-07 19:38 53.63162 -5.37415 11984 ft 266 kts 236°
2026-05-07 19:38 53.62137 -5.40000 11353 ft 265 kts 236°
2026-05-07 19:39 53.61115 -5.42577 10746 ft 263 kts 236°
2026-05-07 19:39 53.60098 -5.45139 10124 ft 264 kts 236°
2026-05-07 19:39 53.59083 -5.47696 9483 ft 261 kts 236°
2026-05-07 19:39 53.58085 -5.50208 8770 ft 259 kts 236°
2026-05-07 19:40 53.57073 -5.52752 8089 ft 265 kts 236°
2026-05-07 19:40 53.56053 -5.55313 7813 ft 260 kts 235°
2026-05-07 19:40 53.55067 -5.57789 7516 ft 257 kts 235°
2026-05-07 19:40 53.54055 -5.60327 7145 ft 256 kts 235°
2026-05-07 19:41 53.53079 -5.62772 6798 ft 255 kts 234°
2026-05-07 19:41 53.52088 -5.65252 6355 ft 258 kts 234°
2026-05-07 19:41 53.51089 -5.67749 5946 ft 257 kts 235°
2026-05-07 19:41 53.50096 -5.70226 5610 ft 252 kts 234°
2026-05-07 19:42 53.49130 -5.72639 5349 ft 247 kts 234°
2026-05-07 19:42 53.48176 -5.75016 5094 ft 243 kts 234°
2026-05-07 19:42 53.47237 -5.77355 4836 ft 241 kts 234°
2026-05-07 19:42 53.46296 -5.79698 4570 ft 242 kts 235°
2026-05-07 19:43 53.45349 -5.82050 4301 ft 245 kts 235°
2026-05-07 19:43 53.44397 -5.84418 4068 ft 245 kts 235°
2026-05-07 19:43 53.43442 -5.86787 3833 ft 245 kts 235°
2026-05-07 19:43 53.42494 -5.89136 3597 ft 238 kts 234°
2026-05-07 19:44 53.41600 -5.91352 3325 ft 221 kts 235°
2026-05-07 19:44 53.40819 -5.93480 3111 ft 207 kts 249°
2026-05-07 19:44 53.40665 -5.95775 3051 ft 192 kts 266°
2026-05-07 19:44 53.40636 -5.97971 3085 ft 189 kts 266°
2026-05-07 19:45 53.40686 -6.00105 3011 ft 183 kts 271°
2026-05-07 19:45 53.40787 -6.02208 2929 ft 184 kts 272°
2026-05-07 19:45 53.40903 -6.04351 2678 ft 183 kts 272°
2026-05-07 19:45 53.41018 -6.06462 2419 ft 174 kts 272°
2026-05-07 19:46 53.41123 -6.08350 2195 ft 156 kts 271°
2026-05-07 19:46 53.41220 -6.10158 2003 ft 155 kts 271°
2026-05-07 19:46 53.41315 -6.11903 1760 ft 145 kts 270°
2026-05-07 19:46 53.41404 -6.13541 1588 ft 135 kts 269°
2026-05-07 19:47 53.41488 -6.15101 1427 ft 138 kts 270°
2026-05-07 19:47 53.41576 -6.16727 1216 ft 137 kts 270°
2026-05-07 19:47 53.41659 -6.18266 1020 ft 133 kts 270°
2026-05-07 19:47 53.41759 -6.19836 809 ft 137 kts 272°
2026-05-07 19:48 53.41823 -6.21421 631 ft 135 kts 268°
2026-05-07 19:48 53.41901 -6.22992 483 ft 138 kts 271°
2026-05-07 19:48 53.41998 -6.24599 304 ft 139 kts 270°
2026-05-07 19:48 53.42081 -6.26153 216 ft 120 kts 276°
2026-05-07 19:49 53.42144 -6.27231 217 ft 66 kts 276°
2026-05-07 19:49 53.42200 -6.27816 220 ft 48 kts 291°
2026-05-07 19:49 53.42281 -6.28083 223 ft 18 kts 310°
2026-05-07 19:49 53.42345 -6.28133 220 ft 5 kts 19°
2026-05-07 19:50 53.42361 -6.28006 217 ft 19 kts 92°
2026-05-07 19:50 53.42345 -6.27720 221 ft 26 kts 97°
2026-05-07 19:50 53.42330 -6.27416 215 ft 26 kts 96°
2026-05-07 19:50 53.42312 -6.27121 221 ft 25 kts 96°
2026-05-07 19:51 53.42295 -6.26828 215 ft 25 kts 97°
2026-05-07 19:51 53.42281 -6.26535 219 ft 25 kts 94°
2026-05-07 19:51 53.42267 -6.26242 219 ft 25 kts 84°
2026-05-07 19:51 53.42351 -6.26015 220 ft 19 kts 40°
2026-05-07 19:52 53.42433 -6.25881 220 ft 13 kts 43°
2026-05-07 19:52 53.42495 -6.25935 223 ft 12 kts 287°
2026-05-07 19:52 53.42504 -6.26041 220 ft 6 kts 276°
2026-05-07 19:52 53.42506 -6.26064 217 ft 0 kts 276°
2026-05-07 19:53 53.42506 -6.26065 217 ft 1 kts 276°
2026-05-07 19:53 53.42509 -6.26126 218 ft 1 kts 275°
2026-05-07 19:53 53.42510 -6.26150 222 ft 0 kts 276°
2026-05-07 19:53 53.42508 -6.26163 222 ft 3 kts 250°
2026-05-07 19:54 53.42490 -6.26181 224 ft 3 kts 202°
2026-05-07 19:54 53.42468 -6.26189 223 ft 3 kts 190°
2026-05-07 19:54 53.42448 -6.26194 219 ft 2 kts 187°
2026-05-07 19:54 53.42432 -6.26197 218 ft 0 kts 186°
2026-05-07 19:55 53.42429 -6.26197 217 ft 0 kts 186°